Regional Weather Roundup
Issued by NWS

Home | Current Version | Previous Version | Graphics & Text | Print | Product List | Glossary On
Versions: 1 2 3 4 5 6 7 8 9 10 11 12 13 14 15 16 17 18 19 20 21 22 23 24 25 26 27 28 29 30 31 32 33 34 35 36 37 38 39 40 41 42 43 44 45 46 47 48 49 50
000
ASUS45 KTFX 282010
RWRMT
MONTANA REGIONAL WEATHER ROUNDUP
NATIONAL WEATHER SERVICE GREAT FALLS MT
200 PM MDT THU APR 28 2016

NOTE: "FAIR" INDICATES FEW OR NO CLOUDS BELOW 12000 FEET WITH NO
SIGNIFICANT WEATHER AND/OR OBSTRUCTIONS TO VISIBILITY.

MTZ001>007-043-282100-
WEST OF THE DIVIDE

CITY           SKY/WX    TMP DP  RH WIND       PRES   REMARKS
KALISPELL      CLOUDY    53  29  39 NE10      30.03F
MISSOULA       CLOUDY    50  27  40 S9        30.01F
BUTTE          LGT SNOW  34  31  88 SE6       29.98R FOG     WCI  29
MULLAN PASS    CLOUDY    39  27  62 CALM      29.99S
ANACONDA         N/A     39  27  60 N17G23    29.98S WCI  30
DEER LODGE       N/A     39  27  60 NE10      30.01F
EUREKA           N/A     55  30  38 SW5       30.03F
HAMILTON         N/A     48  27  43 N12G17    29.96F
LIBBY            N/A     55  32  41 NW5       30.01F
PLAINS           N/A     54  34  46 S1        30.01F
$$

MTZ008-052>055-282100-
SOUTHWEST MONTANA

CITY           SKY/WX    TMP DP  RH WIND       PRES   REMARKS
BOZEMAN        CLOUDY    43  28  55 SE9       30.00S
DILLON         CLOUDY    44  25  47 NE22G30   29.92S
ENNIS          CLOUDY    39  23  52 N22G29    29.97S WCI  29
THREE FORKS      N/A     40  40 100 N5        30.01S
TWIN BRIDGES     N/A     41  24  51 N25       29.93S
$$

MTZ009-010-012-014-046-048-049-054-282100-
EAST SLOPES AND CENTRAL MONTANA

CITY           SKY/WX    TMP DP  RH WIND       PRES   REMARKS
CUT BANK       CLOUDY    43  31  62 SE13G21   30.13S
GREAT FALLS    CLOUDY    40  33  76 E14       30.09F
HELENA         CLOUDY    43  31  62 N18       30.03F
CHOTEAU          N/A     37  36  93 E13       30.12S WCI  29
CONRAD           N/A     42  39  89 NE8       30.13F
$$

MTZ011-013-016-021-045-047-050-051-282100-
NORTH CENTRAL MONTANA

CITY           SKY/WX    TMP DP  RH WIND       PRES   REMARKS
HAVRE          CLOUDY    52  33  48 E12       30.12S
LEWISTOWN      CLOUDY    40  32  73 E15       30.10S
N BAR RANCH    LGT SNOW  34  32  93 NE6       30.12S VSB 1   WCI  29
CHINOOK          N/A     54  30  40 E12       30.12F
$$

MTZ017>020-022>027-061-062-282100-
NORTHEAST MONTANA

CITY           SKY/WX    TMP DP  RH WIND       PRES   REMARKS
GLASGOW        CLOUDY    54  28  36 E16       30.12F
JORDAN           N/A     48  29  47 E9        30.11S
SIDNEY         CLOUDY    54  27  35 E15       30.13S
WOLF POINT     PTSUNNY   55  28  35 E13       30.13F
PLENTYWOOD       N/A     54  18  24 E14       30.14F
POPLAR           N/A     54  27  35 E12G18    30.13S
SCOBEY           N/A     55  19  24 NE12      30.12F
$$

MTZ028>42-056>058-282100-
SOUTHCENTRAL AND SOUTHEAST MONTANA

CITY           SKY/WX    TMP DP  RH WIND       PRES   REMARKS
BAKER          CLOUDY    40  34  79 E12       30.11R
BILLINGS       FLURRIES  35  33  92 E9        30.10S WCI  28
LIVINGSTON     CLOUDY    42  31  64 E24G30    30.01F
MILES CITY     LGT RAIN  43  33  68 E8        30.10S
EKALAKA          N/A     37  34  89 NE8       30.06R WCI  31
FORSYTH          N/A     43  36  75 N8        30.11S
LAUREL           N/A     36  30  79 N7        30.07S WCI  30
ROUNDUP          N/A     37  34  89 NE7       30.01F WCI  31
$$

REGIONAL REPORTS...DAKOTAS

CITY           SKY/WX    TMP DP  RH WIND       PRES   REMARKS
WILLISTON      PTSUNNY   57  23  26 NE13      30.13F
MINOT          CLOUDY    59  11  15 NE15      30.13S
DICKINSON      CLOUDY    48  30  49 MISG      30.08S
BEACH          PTSUNNY   48  32  53 E8        30.13S
CROSBY           N/A     57  10  15 E20G25    30.17F
TIOGA            N/A     52  16  24 NE15G24   30.18F
WATFORD CITY     N/A     52  23  32 E14       30.13F
BISMARCK       CLOUDY    56  22  26 NE15      30.09S
GRAND FORKS    PTSUNNY   57  24  28 NE20      30.11S
FARGO          CLOUDY    58  19  22 NE17      30.05F
BUFFALO SD       N/A     37  33  85 E7        30.03S WCI  32
RAPID CITY     CLOUDY    40  33  76 N13       30.05S
$$

REGIONAL REPORTS...WYOMING/IDAHO/WASHINGTON

CITY           SKY/WX    TMP DP  RH WIND       PRES   REMARKS
GILLETTE       CLOUDY    36  33  89 N13       30.04S WCI  27
SHERIDAN       CLOUDY    40  32  73 NE7       30.06S
BUFFALO WY     CLOUDY    35  29  78 N8        30.04S WCI  29
CODY           CLOUDY    37  28  70 N14       29.99F WCI  29
YELLOWSTONE LA   N/A     37  24  59 CALM      29.89F
IDAHO FALLS    PTSUNNY   58  25  28 VRB3G18   29.80S
SALMON         CLOUDY    50  28  43 N7        29.90F
BOISE          SUNNY     67  34  29 NW17      29.80F
SPOKANE        PTSUNNY   62  33  33 N8        29.96F
$$

REGIONAL REPORTS...ALBERTA

CITY           SKY/WX    TMP DP  RH WIND       PRES   REMARKS
EDMONTON       SUNNY     57  32  38 SE18G29   30.11F
CALGARY        CLOUDY    50  30  46 S22G32    30.10F
LETHBRIDGE     PTSUNNY   50  34  53 E9G23     30.14F
MEDICINE HAT   CLOUDY    55  32  41 E13       30.15F
$$

REGIONAL REPORTS...SASKATCHEWAN

CITY           SKY/WX    TMP DP  RH WIND       PRES   REMARKS
REGINA         PTSUNNY   59  18  20 E12G20    30.19F
SASKATOON      PTSUNNY   61  19  20 SE15G25   30.23F
$$



USA.gov is the U.S. government's official web portal to all federal, state and local government web resources and services.